Regional Weather Roundup
Issued by NWS Goodland, KS

Home | Current Version | Previous Version | Text Only | Print | Product List | Glossary Off
Versions: 1 2 3 4 5 6 7 8 9 10 11 12 13 14 15 16 17 18 19 20 21 22 23 24 25 26 27 28 29 30 31 32 33 34 35 36 37 38 39 40 41 42 43 44 45 46 47 48 49 50

000
ASUS43 KGLD 110559
RWRGLD

GOODLAND FORECAST AREA HOURLY WEATHER ROUNDUP
NATIONAL WEATHER SERVICE GOODLAND KS
1100 PM MST WED FEB 10 2016

...OFFICIAL OBSERVATIONS...

CITY           SKY/WX    TMP DP  RH WIND       PRES   REMARKS
GOODLAND KS    CLOUDY    38  27  64 NW12      30.14R
HILL CITY KS   CLOUDY    38  30  73 CALM      30.12R
IMPERIAL NEB   CLOUDY    36  27  69 NW8       30.15R
MCCOOK NEB     CLEAR     36  29  75 NE12      30.12R
AKRON CO       CLEAR     35  23  61 NW14      30.16R
BURLINGTON CO  CLOUDY    35  24  64 NW12      30.16R
LIMON CO       CLOUDY    31  21  66 N9        30.21R
$$

...UNOFFICIAL OBSERVATIONS...

CITY           SKY/WX    TMP DP  RH WIND       PRES   REMARKS
COLBY KS       CLEAR     37  32  81 NW12      30.13R
GOVE KS          N/A     36  32  85 MISG        N/A
LENORA KS        N/A     39  32  76 MISG        N/A
NORTON KS      CLEAR     36  27  69 N5        30.10R
SHARON SPRINGS   N/A     43  29  57 NW15G22     N/A
TRENTON NEB      N/A     35  32  89 MISG        N/A
KIT CARSON CO    N/A     41  25  52 MISG        N/A
YUMA CO          N/A     37  28  69 NW12        N/A
$$



USA.gov is the U.S. government's official web portal to all federal, state and local government web resources and services.